User: anonymous   Login
Location: ??????
(36.0418°N, 43.6351°E)
Time: 14:59:29
(UTC+00:00)
Language:

Cosmos 614 Rocket - Orbit

View from above orbital plane
View from above orbital plane
View from above satellite
View from above satellite

Ground track
Ground track

The orbit data is extracted from the following two-line orbital elements,

1 06966U 73098B   21129.23048048 -.00000015  00000-0  33915-5 0  9991
2 06966  74.0547 104.3867 0020078  81.1986 279.1443 14.43077213490336
Epoch (UTC): 09 May 2021 05:31:53
Eccentricity: 0.0020078
inclination: 74.0547°
perigee height: 734 km
apogee height: 762 km
right ascension of ascending node: 104.3867°
argument of perigee: 81.1986°
revolutions per day: 14.43077213
mean anomaly at epoch: 279.1443°
orbit number at epoch: 49033

The dashed part of the orbit path shows where the satellite is in the earth's shadow,  

DLR